Time,TemperatureF,DewpointF,PressureIn,WindDirection,WindDirectionDegrees,WindSpeedMPH,WindSpeedGustMPH,Humidity,HourlyPrecipIn,Conditions,Clouds,dailyrainin,SoftwareType,DateUTC
2013-01-23 01:50:00,52.0,27.0,-100.00,SSE,154,7.0,10.0,37,-99.99,,,-99.99,,2013-01-23 09:50:00,
2013-01-23 02:32:00,52.0,27.0,-100.00,SSE,154,7.0,10.0,37,-99.99,,,-99.99,,2013-01-23 10:32:00,
2013-01-23 02:42:00,52.0,27.0,-100.00,SSE,154,7.0,10.0,37,-99.99,,,-99.99,,2013-01-23 10:42:00,
2013-01-23 04:40:00,58.0,27.0,-100.00,SE,138,9.0,12.0,30,-99.99,,,-99.99,,2013-01-23 12:40:00,
2013-01-23 05:03:00,58.0,26.0,-100.00,SE,134,11.0,13.0,29,-99.99,,,-99.99,,2013-01-23 13:03:00,
2013-01-23 05:12:00,58.0,27.0,-100.00,SE,138,9.0,12.0,30,-99.99,,,-99.99,,2013-01-23 13:12:00,
2013-01-23 05:23:00,58.0,27.0,-100.00,SE,138,9.0,12.0,30,-99.99,,,-99.99,,2013-01-23 13:23:00,
2013-01-23 05:33:00,58.0,27.0,-100.00,SE,138,9.0,12.0,30,-99.99,,,-99.99,,2013-01-23 13:33:00,
2013-01-23 09:52:00,67.0,33.0,-100.00,SE,141,14.0,19.0,28,-99.99,,,-99.99,,2013-01-23 17:52:00,
2013-01-23 10:03:00,68.0,33.0,-100.00,SE,141,12.0,19.0,27,-99.99,,,-99.99,,2013-01-23 18:03:00,
2013-01-23 10:12:00,69.0,33.0,-100.00,SE,145,12.0,19.0,26,-99.99,,,-99.99,,2013-01-23 18:12:00,
2013-01-23 10:22:00,69.0,32.0,-100.00,SSE,149,13.0,19.0,25,-99.99,,,-99.99,,2013-01-23 18:22:00,
2013-01-23 10:32:00,69.0,32.0,-100.00,SSE,149,13.0,23.0,25,-99.99,,,-99.99,,2013-01-23 18:32:00,
2013-01-23 10:43:00,69.0,32.0,-100.00,SSE,150,13.0,20.0,25,-99.99,,,-99.99,,2013-01-23 18:43:00,
2013-01-23 10:52:00,70.0,32.0,-100.00,SE,142,16.0,23.0,24,-99.99,,,-99.99,,2013-01-23 18:52:00,
2013-01-23 11:02:00,70.0,32.0,-100.00,SE,142,16.0,23.0,24,-99.99,,,-99.99,,2013-01-23 19:02:00,
2013-01-23 11:12:00,70.0,32.0,-100.00,SE,146,15.0,21.0,24,-99.99,,,-99.99,,2013-01-23 19:12:00,
2013-01-23 11:22:00,70.0,30.0,-100.00,SE,143,16.0,26.0,23,-99.99,,,-99.99,,2013-01-23 19:22:00,
2013-01-23 11:33:00,70.0,30.0,-100.00,SE,137,17.0,25.0,23,-99.99,,,-99.99,,2013-01-23 19:33:00,
2013-01-23 11:42:00,70.0,30.0,-100.00,SSE,151,15.0,25.0,23,-99.99,,,-99.99,,2013-01-23 19:42:00,
2013-01-23 11:52:00,70.0,32.0,-100.00,SSE,152,12.0,20.0,24,-99.99,,,-99.99,,2013-01-23 19:52:00,
2013-01-23 12:02:00,70.0,30.0,-100.00,SE,140,15.0,23.0,23,-99.99,,,-99.99,,2013-01-23 20:02:00,
2013-01-23 12:12:00,70.0,30.0,-100.00,SSE,153,11.0,19.0,23,-99.99,,,-99.99,,2013-01-23 20:12:00,
2013-01-23 12:22:00,70.0,30.0,-100.00,SSE,162,12.0,19.0,23,-99.99,,,-99.99,,2013-01-23 20:22:00,
2013-01-23 12:32:00,70.0,30.0,-100.00,SSE,162,12.0,19.0,23,-99.99,,,-99.99,,2013-01-23 20:32:00,
2013-01-23 12:42:00,70.0,30.0,-100.00,SSE,162,12.0,19.0,23,-99.99,,,-99.99,,2013-01-23 20:42:00,
2013-01-23 12:53:00,70.0,32.0,-100.00,South,171,12.0,18.0,24,-99.99,,,-99.99,,2013-01-23 20:53:00,
2013-01-23 13:02:00,70.0,32.0,-100.00,South,173,11.0,19.0,24,-99.99,,,-99.99,,2013-01-23 21:02:00,
2013-01-23 13:10:00,68.0,34.0,-100.00,WSW,240,8.0,12.0,28,-99.99,,,-99.99,,2013-01-23 21:10:00,
2013-01-23 13:12:00,70.0,32.0,-100.00,South,170,8.0,15.0,24,-99.99,,,-99.99,,2013-01-23 21:12:00,
2013-01-23 13:22:00,70.0,32.0,-100.00,South,169,10.0,16.0,24,-99.99,,,-99.99,,2013-01-23 21:22:00,
2013-01-23 13:33:00,69.0,32.0,-100.00,South,172,10.0,17.0,25,-99.99,,,-99.99,,2013-01-23 21:33:00,
2013-01-23 13:42:00,68.0,34.0,-100.00,WSW,240,8.0,12.0,28,-99.99,,,-99.99,,2013-01-23 21:42:00,
2013-01-23 13:52:00,68.0,34.0,-100.00,WSW,240,8.0,12.0,28,-99.99,,,-99.99,,2013-01-23 21:52:00,
2013-01-23 14:02:00,68.0,34.0,-100.00,WSW,240,8.0,12.0,28,-99.99,,,-99.99,,2013-01-23 22:02:00,
2013-01-23 15:30:00,63.0,36.0,-100.00,West,279,6.0,7.0,36,-99.99,,,-99.99,,2013-01-23 23:30:00,
2013-01-23 16:03:00,63.0,36.0,-100.00,West,279,6.0,7.0,36,-99.99,,,-99.99,,2013-01-24 00:03:00,
2013-01-23 16:12:00,63.0,36.0,-100.00,West,279,6.0,7.0,36,-99.99,,,-99.99,,2013-01-24 00:12:00,
2013-01-23 16:22:00,63.0,36.0,-100.00,West,279,6.0,7.0,36,-99.99,,,-99.99,,2013-01-24 00:22:00,
2013-01-23 16:50:00,60.0,33.0,-100.00,NW,320,4.0,6.0,36,-99.99,,,-99.99,,2013-01-24 00:50:00,
2013-01-23 17:03:00,60.0,34.0,-100.00,WNW,294,3.0,5.0,38,-99.99,,,-99.99,,2013-01-24 01:03:00,
2013-01-23 17:12:00,60.0,34.0,-100.00,West,277,3.0,5.0,37,-99.99,,,-99.99,,2013-01-24 01:12:00,
2013-01-23 17:22:00,60.0,34.0,-100.00,West,277,3.0,5.0,37,-99.99,,,-99.99,,2013-01-24 01:22:00,
2013-01-23 17:33:00,60.0,33.0,-100.00,NW,320,4.0,6.0,36,-99.99,,,-99.99,,2013-01-24 01:33:00,
2013-01-23 17:42:00,60.0,33.0,-100.00,NW,320,4.0,6.0,36,-99.99,,,-99.99,,2013-01-24 01:42:00,
2013-01-23 19:02:00,57.0,35.0,-100.00,East,101,3.0,3.0,44,-99.99,,,-99.99,,2013-01-24 03:02:00,
2013-01-23 19:10:00,57.0,36.0,-100.00,ESE,108,4.0,6.0,45,-99.99,,,-99.99,,2013-01-24 03:10:00,
2013-01-23 19:12:00,58.0,36.0,-100.00,ENE,72,3.0,3.0,43,-99.99,,,-99.99,,2013-01-24 03:12:00,
2013-01-23 19:22:00,58.0,36.0,-100.00,ENE,72,3.0,3.0,43,-99.99,,,-99.99,,2013-01-24 03:22:00,
2013-01-23 19:32:00,58.0,36.0,-100.00,ENE,72,3.0,3.0,43,-99.99,,,-99.99,,2013-01-24 03:32:00,
2013-01-23 19:42:00,57.0,36.0,-100.00,ESE,108,4.0,6.0,45,-99.99,,,-99.99,,2013-01-24 03:42:00,
2013-01-23 19:52:00,57.0,36.0,-100.00,ESE,108,4.0,6.0,45,-99.99,,,-99.99,,2013-01-24 03:52:00,
2013-01-23 20:02:00,57.0,36.0,-100.00,ESE,108,4.0,6.0,45,-99.99,,,-99.99,,2013-01-24 04:02:00,
2013-01-23 20:22:00,55.0,35.0,-100.00,SE,138,7.0,8.0,46,-99.99,,,-99.99,,2013-01-24 04:22:00,
2013-01-23 20:32:00,56.0,36.0,-100.00,SE,125,6.0,9.0,46,-99.99,,,-99.99,,2013-01-24 04:32:00,
2013-01-23 20:40:00,56.0,33.0,-100.00,SE,124,8.0,10.0,41,-99.99,,,-99.99,,2013-01-24 04:40:00,
2013-01-23 20:42:00,56.0,36.0,-100.00,SE,131,6.0,8.0,46,-99.99,,,-99.99,,2013-01-24 04:42:00,
2013-01-23 20:52:00,56.0,36.0,-100.00,SE,131,6.0,8.0,46,-99.99,,,-99.99,,2013-01-24 04:52:00,
2013-01-23 21:03:00,56.0,36.0,-100.00,SE,131,6.0,8.0,46,-99.99,,,-99.99,,2013-01-24 05:03:00,
2013-01-23 21:12:00,56.0,33.0,-100.00,SE,124,8.0,10.0,41,-99.99,,,-99.99,,2013-01-24 05:12:00,
2013-01-23 21:22:00,56.0,33.0,-100.00,SE,124,8.0,10.0,41,-99.99,,,-99.99,,2013-01-24 05:22:00,
2013-01-23 21:32:00,56.0,33.0,-100.00,SE,124,8.0,10.0,41,-99.99,,,-99.99,,2013-01-24 05:32:00,
2013-01-23 23:30:00,55.0,35.0,-100.00,SSE,148,6.0,8.0,46,-99.99,,,-99.99,,2013-01-24 07:30:00,